Regional Weather Roundup
Issued by NWS New Orleans/Baton Rouge, LA

Home | Current Version | Previous Version | Graphics & Text | Print | Product List | Glossary On
Versions: 1 2 3 4 5 6 7 8 9 10 11 12 13 14 15 16 17 18 19 20 21 22 23 24 25 26 27 28 29 30 31 32 33 34 35 36 37 38 39 40 41 42 43 44 45 46 47 48 49 50
593
ASUS44 KLIX 021501
RWRLIX
NEW ORLEANS REGIONAL WEATHER ROUNDUP
NATIONAL WEATHER SERVICE NEW ORLEANS LA
1000 AM CDT TUE SEP 02 2014

NOTE: "FAIR" INDICATES FEW OR NO CLOUDS BELOW 12,000 FEET WITH NO
      SIGNIFICANT WEATHER AND/OR OBSTRUCTIONS TO VISIBILITY.
      SKY/WX - SKY CONDITION AND SIGNIFICANT WEATHER.
      TMP - AIR TEMPERATURE.     DP    - DEWPOINT TEMPERATURE.
      RH  - RELATIVE HUMIDITY.   PRES  - PRESSURE.
      HI  - HEAT INDEX.          WCI   - WIND CHILL INDEX.

*  THESE STATIONS ARE NOT NWS OR FAA STATIONS AND ARE NOT UNDER
   NWS QUALITY CONTROL.

LAZ038-040-048-061>063-065>067-069-021600-
SOUTHEAST LOUISIANA

CITY           SKY/WX    TMP DP  RH WIND       PRES   REMARKS
N.O. AUDUBON   NOT AVBL
N.O. INTL ARPT PTSUNNY   87  76  69 S12       30.06S HX  97
N.O. LAKEFRONT MOSUNNY   84  76  76 S9        30.07S
N.O. DOWNTOWN*   N/A     86  73  66 S6        30.07S
SLIDELL        PTSUNNY   84  79  85 SE7       30.07S HX  96
BATON ROUGE    MOSUNNY   87  76  69 S8        30.06R HX  97
BOOTHVILLE     SUNNY     87  77  72 SE6       30.08R HX  99
BELLE CHASSE   PTSUNNY   86  74  67 S8        30.06S
BOGALUSA*      PTSUNNY   83  77  82 S6        30.09S
GALLIANO*      NOT AVBL
NEW ROADS*       N/A     84  77  78 S8        30.07R
GONZALES*        N/A     86  80  80 S8        30.06R HX 101
HAMMOND*       NOT AVBL
HOUMA*         NOT AVBL
PORT FOURCHON* PTSUNNY   86  75  70 S9        30.08F HX  95

$$

MSZ070-080>082-021600-
SOUTHERN MISSISSIPPI

CITY           SKY/WX    TMP DP  RH WIND       PRES   REMARKS
MCCOMB         MOSUNNY   83  75  77 VRB6      30.09R
GULFPORT       MOSUNNY   87  77  72 SE7       30.07S HX  99
BILOXI         MOSUNNY   87  76  70 S5        30.08S HX  98
PASCAGOULA     SUNNY     86  75  69 S6        30.08S HX  95
STENNIS ARPT*  PTSUNNY  N/A N/A N/A S7        30.07F

$$

COASTAL OBSERVATIONS
LAKE AND NEARSHORE STATIONS

STATION/POSITION TIME  TEMP    WIND        PRES    WAVE
                       AIR SEA DIR/SP/G            HT/PER
                 (UTC) (F)     (DEG/KT/KT) (MB)    (FT/S)
PASCAGOULA       1400   85     210/  3/  5 1018.1
WAVELAND YACHT   1400   84     160/  8/ 10 1017.6
GRAND ISLE       1400   86 84  170/  3/  5 1019.0
SOUTHWEST PASS   1400   87 90  120/  7/  9 1018.6
NEW CANAL        1400   85 81  200/  7/  9 1018.5
SHELL BEACH      1400   83 80  130/  5/  7 1018.1

OFFSHORE STATIONS

STATION/POSITION TIME  TEMP    WIND        PRES    WAVE
                       AIR SEA DIR/SP/G            HT/PER
                 (UTC) (F)     (DEG/KT/KT) (MB)    (FT/S)
64 S DAUPHIN ISL 1428   84 86  140/  4/  4 1019.1

$$




USA.gov is the U.S. government's official web portal to all federal, state and local government web resources and services.